Regional Weather Roundup
Issued by NWS

Home | Current Version | Previous Version | Graphics & Text | Print | Product List | Glossary On
Versions: 1 2 3 4 5 6 7 8 9 10 11 12 13 14 15 16 17 18 19 20 21 22 23 24 25 26 27 28
000
ASUS45 KCYS 292210
RWRWY

WYOMING REGIONAL WEATHER ROUNDUP
NATIONAL WEATHER SERVICE CHEYENNE WY
400 PM MDT WED OCT 29 2014

NOTE:  "FAIR" INDICATES FEW OR NO CLOUDS BELOW 12,000 FEET
WITH NO SIGNIFICANT WEATHER AND/OR OBSTRUCTIONS TO VISIBILITY.

WYZ001-292300-
YELLOWSTONE NATIONAL PARK

CITY           SKY/WX    TMP DP  RH WIND       PRES   REMARKS
LK YELLOWSTONE   N/A     42  25  50 CALM      30.28
W YELLOWSTONE  NOT AVBL

$$
WYZ002>013-054>058-071-098>099-292300-
NORTHERN WYOMING

CITY           SKY/WX    TMP DP  RH WIND       PRES   REMARKS
JACKSON        PTSUNNY   54  30  40 SW12      30.24R
CODY           SUNNY     57  25  28 W13G22    30.13
GREYBULL       MOSUNNY   64  21  19 W20       30.07R
WORLAND        SUNNY     64  22  20 NW7       30.08R
SHERIDAN       PTSUNNY   61  25  25 NW23G40   30.04R
BUFFALO        MOSUNNY   61  19  19 NW23G29   30.07R
GILLETTE       PTSUNNY   60  26  27 NW14G26   30.04R
HULETT         FAIR      59  30  33 NW9G16    30.03R
NEWCASTLE      FAIR      59  28  31 N15G23    30.02

$$
WYZ014>020-022>026-101>103-292300-
CENTRAL WYOMING

CITY           SKY/WX    TMP DP  RH WIND       PRES   REMARKS
BIG PINEY      PTSUNNY   54  25  32 NW14G23   30.27R
PINEDALE       MOCLDY    52  27  37 NW17      30.27
DUBOIS         FAIR      46  27  46 NW22G32   30.21R
LANDER         SUNNY     61  23  23 W14G23    30.12S
RIVERTON       MOSUNNY   60  24  25 NW17G31   30.13R
CASPER         SUNNY     62  21  20 NW25G35   30.09S
DOUGLAS        CLOUDY    62  23  22 NW24G35   30.06F

$$
WYZ021-027>030-104>119-292300-
SOUTHERN WYOMING

CITY           SKY/WX    TMP DP  RH WIND       PRES   REMARKS
EVANSTON       MOSUNNY   58  27  30 W20G29    30.30F
KEMMERER       PTCLDY    54  28  37 W18G26    30.28S
FORT BRIDGER   FAIR      60  29  32 W22G28    30.30F
ROCK SPRINGS   SUNNY     56  25  30 W20G32    30.24F
DIXON          FAIR      60  18  19 W15G22    30.27S
RAWLINS        MOSUNNY   56  22  26 W23G31    30.21S
SARATOGA       FAIR      55  21  26 W20G26    30.23F
LARAMIE        MOSUNNY   55  19  24 W28G36    30.18R
CHEYENNE       SUNNY     61  21  21 W26G41    30.12R
TORRINGTON     CLOUDY    67  19  16 NW25G33   30.00R
PINE BLUFFS    FAIR      64  23  20 NW30G40   30.07R

$$



USA.gov is the U.S. government's official web portal to all federal, state and local government web resources and services.